Weather in Sesha

Russia / Bryansk Oblast     53°43′59″N   33°19′52″E
temp.,
°C
wind,
m/s
gust,
m/s
humid.,
%
clouds,
%
prec.,
mm/h
press.,
hPa
HPBL,
m
11 april, sun
sun1100:00+4ssw411743 0.0 1025199
03:00+3ssw310785 0.0 1026184
06:00+2ssw37800 0.0 1027106
09:00+7ssw35640 0.0 1028242
12:00+12s45490 0.0 1029777
15:00+14s33430 0.0 10281287
18:00+14se24530 0.0 1028106
21:00+9se22630 0.0 102911
12 april, mon
mon1200:00+7ese22720 0.0 103022
03:00+5e33760 0.0 103147
06:00+4e3779100 0.0 1030118
09:00+8e51264100 0.0 1029470
12:00+11e6846100 0.0 1027717
15:00+8e4877100 0.1 1026423
18:00+10e3683100 0.2 1025321
21:00+9ene3591100 0.2 1025100
13 april, tue
tue1300:00+8e3593100 0.0 102390
03:00+8ene2293100 0.0 102215
06:00+8e2392100 0.0 102235
09:00+12se3679100 0.0 1022220
12:00+17se466097 0.0 1021839
15:00+16sse476768 0.3 1021525
18:00+14sse377399 0.5 1020154
21:00+12se2381100 0.6 102038
14 april, wed
wed1400:00+11sse368869 0.1 1019140
03:00+11sse389199 0.2 1019274
06:00+9sse369598 0.0 1019159
09:00+11s3584100 0.0 1019351
12:00+15s456992 0.9 1018997
15:00+15se3467100 1.7 1017755
18:00+14se3676100 0.8 1016425
21:00+10sse51095100 3.5 1017711
15 april, thu
thu1500:00+10se4992100 0.9 1015402
03:00+9se3596100 1.6 1015199
06:00+9sse2597100 0.9 1015200
09:00+9s239599 1.1 1016187
12:00+14s1269100 0.5 1015585
15:00+15sse0061100 2.0 1014692
18:00+14ne2368100 1.5 1014203
21:00+11nne2277100 1.7 101417